Tucson, AZ

5:43 PM MST on September 21, 2019 (GMT -0700)
Tucson International

Weather History for KTUS - July, 2019

Change the Weather History Date:

Friday, July 26, 2019

  Actual Average Record
Temperature  
Mean Temperature 92 °F 86 °F  
Max Temperature 105 °F 98 °F 112 °F (1995)
Min Temperature 78 °F 74 °F 59 °F (1913)
Degree Days  
Heating Degree Days 0 0  
Month to date heating degree days 0  
Since 1 June heating degree days 0  
Since 1 July heating degree days 0  
Cooling Degree Days 26 21  
Month to date cooling degree days 581  
Year to date cooling degree days 1677  
Since 1 June cooling degree days 1175  
Growing Degree Days 42 (Base 50)    
Moisture  
Dew Point 60 °F    
Average Humidity 36    
Maximum Humidity 62    
Minimum Humidity 13    
Precipitation  
Precipitation 0.00 in 0.09 in 2.00 in (1936)
Month to date precipitation 1.77  
Year to date precipitation 5.04  
Sea Level Pressure  
Sea Level Pressure 29.87 in    
Wind  
Wind Speed 7 mph (SW)    
Max Wind Speed 14 mph    
Max Gust Speed 21 mph    
Visibility 10 miles    
Events      
T = Trace of Precipitation, MM = Missing Value Source: NWS Daily Summary

Daily Weather History Graph

Daily Weather History Graph

Search for Another Location

Airport or City:

Astronomy

Jul. 26, 2019 Rise Set
Actual Time 5:34 AM MST 7:25 PM MST
Civil Twilight 5:07 AM MST 7:52 PM MST
Nautical Twilight 4:35 AM MST 8:24 PM MST
Astronomical Twilight 4:00 AM MST 8:59 PM MST
Moon 12:42 AM MST (7/26) 2:19 PM MST (7/26)
Length of Visible Light 14h 44m
Length of Day
13h 50m
Waning Crescent, 33% of the Moon is Illuminated
Jul 26
Waning Crescent
Jul 31
New
Aug 7
First Quarter
Aug 15
Full
Aug 23
Last Quarter

Hourly Weather History & Observations

Time (MST) Temp. Heat Index Dew Point Humidity Pressure Visibility Wind Dir Wind Speed Gust Speed Precip Events Conditions
12:53 AM 82.9 °F 84.0 °F 63.0 °F 51% 29.88 in 10.0 mi South 4.6 mph - N/A   Clear
1:53 AM 82.9 °F 84.4 °F 64.0 °F 53% 29.89 in 10.0 mi ESE 4.6 mph - N/A   Clear
2:53 AM 82.0 °F 83.4 °F 64.0 °F 54% 29.88 in 10.0 mi SE 5.8 mph - N/A   Clear
3:53 AM 79.0 °F - 64.9 °F 62% 29.89 in 10.0 mi SE 4.6 mph - N/A   Clear
4:53 AM 79.0 °F - 64.9 °F 62% 29.90 in 10.0 mi SSE 5.8 mph - N/A   Clear
5:53 AM 79.0 °F - 64.9 °F 62% 29.93 in 10.0 mi SE 5.8 mph - N/A   Clear
6:53 AM 81.0 °F 82.7 °F 64.9 °F 58% 29.95 in 10.0 mi SE 5.8 mph - N/A   Clear
7:53 AM 87.1 °F 88.9 °F 64.9 °F 48% 29.95 in 10.0 mi North - - N/A   Clear
8:53 AM 89.1 °F 90.0 °F 63.0 °F 42% 29.94 in 10.0 mi North - - N/A   Clear
9:53 AM 93.0 °F 93.0 °F 61.0 °F 34% 29.94 in 10.0 mi WNW 9.2 mph - N/A   Clear
10:53 AM 96.1 °F 96.4 °F 61.0 °F 31% 29.92 in 10.0 mi NNW 8.1 mph - N/A   Clear
11:53 AM 99.0 °F 99.5 °F 60.1 °F 28% 29.90 in 10.0 mi NNW 8.1 mph - N/A   Clear
12:53 PM 102.0 °F 102.7 °F 60.1 °F 25% 29.87 in 10.0 mi WNW 8.1 mph - N/A   Clear
1:53 PM 102.0 °F 102.2 °F 59.0 °F 24% 29.83 in 10.0 mi West 12.7 mph 16.1 mph N/A   Clear
2:53 PM 102.9 °F 101.4 °F 55.0 °F 20% 29.82 in 10.0 mi West 10.4 mph - N/A   Clear
3:53 PM 104.0 °F 102.9 °F 55.0 °F 20% 29.80 in 10.0 mi WSW 9.2 mph 20.7 mph N/A   Clear
4:53 PM 102.0 °F 100.6 °F 55.0 °F 21% 29.80 in 10.0 mi West 13.8 mph - N/A   Mostly Cloudy
5:53 PM 100.9 °F - 52.0 °F 19% 29.80 in 10.0 mi WNW 13.8 mph 17.3 mph N/A   Clear
6:53 PM 100.9 °F 99.1 °F 54.0 °F 21% 29.81 in 10.0 mi WNW 13.8 mph - N/A   Clear
7:53 PM 97.0 °F 95.3 °F 55.9 °F 25% 29.83 in 10.0 mi WSW 5.8 mph - N/A   Clear
8:53 PM 95.0 °F 93.7 °F 57.0 °F 28% 29.84 in 10.0 mi South 8.1 mph - N/A   Clear
9:53 PM 91.0 °F 89.7 °F 57.0 °F 32% 29.86 in 10.0 mi North - - N/A   Clear
10:53 PM 90.0 °F 89.1 °F 59.0 °F 35% 29.87 in 10.0 mi North - - N/A   Clear
11:53 PM 88.0 °F 87.1 °F 59.0 °F 37% 29.88 in 10.0 mi North - - N/A   Clear